Hourly Weather Bolshie Logi

Today, 20 June, Sunday

Time Temperature Precipitation Wind Pressure Humidity
00:00 +20°C° 0 mm 2 mps 750 mmHg 90%
01:00 +19°C° 0 mm 2 mps 750 mmHg 93%
02:00 +19°C° 0 mm 2 mps 750 mmHg 95%
03:00 +19°C° 0 mm 2 mps 750 mmHg 95%
04:00 +20°C° 0 mm 2 mps 750 mmHg 94%
05:00 +20°C° 0 mm 2 mps 750 mmHg 94%
06:00 +21°C° 0 mm 2 mps 750 mmHg 87%
07:00 +24°C° 0 mm 3 mps 750 mmHg 81%
08:00 +26°C° 0 mm 3 mps 750 mmHg 74%
09:00 +27°C° 0 mm 3 mps 750 mmHg 68%
10:00 +28°C° 0 mm 4 mps 750 mmHg 63%
11:00 +29°C° 0 mm 4 mps 750 mmHg 57%
12:00 +29°C° 0 mm 4 mps 749 mmHg 55%
13:00 +30°C° 0 mm 4 mps 749 mmHg 52%
14:00 +30°C° 0 mm 4 mps 749 mmHg 50%
15:00 +30°C° 0 mm 3 mps 749 mmHg 53%
16:00 +29°C° 0 mm 3 mps 748 mmHg 56%
17:00 +29°C° 0 mm 3 mps 748 mmHg 60%
18:00 +27°C° 0 mm 3 mps 748 mmHg 67%
19:00 +26°C° 0 mm 3 mps 748 mmHg 74%
20:00 +24°C° 0 mm 2 mps 748 mmHg 81%
21:00 +23°C° 0 mm 2 mps 748 mmHg 85%
22:00 +21°C° 0 mm 2 mps 748 mmHg 88%
23:00 +20°C° 0 mm 2 mps 748 mmHg 92%

Tomorrow, 21 June, Monday

Time Temperature Precipitation Wind Pressure Humidity
00:00 +19°C° 0 mm 2 mps 748 mmHg 93%
01:00 +19°C° 0 mm 2 mps 748 mmHg 93%
02:00 +19°C° 0 mm 2 mps 748 mmHg 93%
03:00 +19°C° 0 mm 2 mps 748 mmHg 92%
04:00 +19°C° 0 mm 2 mps 748 mmHg 92%
05:00 +19°C° 0 mm 2 mps 748 mmHg 91%
06:00 +21°C° 0 mm 3 mps 748 mmHg 84%
07:00 +22°C° 0 mm 3 mps 748 mmHg 77%
08:00 +23°C° 0 mm 4 mps 748 mmHg 70%
09:00 +26°C° 0 mm 4 mps 747 mmHg 63%
10:00 +27°C° 0 mm 5 mps 747 mmHg 57%
11:00 +28°C° 0 mm 5 mps 747 mmHg 50%
12:00 +29°C° 0 mm 5 mps 747 mmHg 49%
13:00 +30°C° 0 mm 5 mps 747 mmHg 47%
14:00 +32°C° 0 mm 5 mps 746 mmHg 46%
15:00 +30°C° 0 mm 5 mps 746 mmHg 49%
16:00 +30°C° 0 mm 4 mps 746 mmHg 53%
17:00 +30°C° 0 mm 4 mps 746 mmHg 56%
18:00 +28°C° 0 mm 4 mps 746 mmHg 64%
19:00 +27°C° 0 mm 3 mps 746 mmHg 71%
20:00 +25°C° 0 mm 3 mps 746 mmHg 78%
21:00 +25°C° 0 mm 3 mps 746 mmHg 80%
22:00 +24°C° 0 mm 3 mps 746 mmHg 83%
23:00 +22°C° 0 mm 4 mps 746 mmHg 85%

Day after tomorrow, 22 June, Tuesday

Time Temperature Precipitation Wind Pressure Humidity
00:00 +21°C° 0 mm 3 mps 746 mmHg 88%
01:00 +21°C° 0 mm 3 mps 746 mmHg 92%
02:00 +20°C° 0 mm 3 mps 746 mmHg 95%
03:00 +20°C° 0 mm 3 mps 746 mmHg 95%
04:00 +20°C° 0 mm 3 mps 746 mmHg 95%
05:00 +20°C° 0 mm 3 mps 746 mmHg 95%
06:00 +22°C° 0 mm 3 mps 746 mmHg 88%
07:00 +24°C° 0 mm 3 mps 746 mmHg 80%
08:00 +26°C° 0 mm 4 mps 746 mmHg 73%
09:00 +27°C° 0 mm 4 mps 746 mmHg 67%
10:00 +29°C° 0 mm 4 mps 746 mmHg 61%
11:00 +30°C° 0 mm 4 mps 746 mmHg 56%
12:00 +32°C° 0 mm 4 mps 746 mmHg 54%
13:00 +32°C° 0 mm 4 mps 746 mmHg 53%
14:00 +33°C° 0 mm 4 mps 746 mmHg 51%
15:00 +33°C° 0 mm 4 mps 746 mmHg 53%
16:00 +32°C° 0 mm 4 mps 746 mmHg 55%
17:00 +32°C° 0 mm 4 mps 746 mmHg 57%
18:00 +29°C° 0 mm 4 mps 746 mmHg 63%
19:00 +28°C° 0 mm 3 mps 746 mmHg 69%
20:00 +26°C° 0 mm 3 mps 746 mmHg 75%
21:00 +25°C° 0 mm 3 mps 746 mmHg 77%
22:00 +24°C° 0 mm 3 mps 746 mmHg 80%
23:00 +22°C° 0 mm 3 mps 747 mmHg 83%

23 June, Wednesday

Time Temperature Precipitation Wind Pressure Humidity
00:00 +21°C° 0 mm 3 mps 747 mmHg 85%
01:00 +20°C° 0 mm 3 mps 747 mmHg 88%
02:00 +20°C° 0 mm 2 mps 747 mmHg 91%
03:00 +20°C° 0 mm 2 mps 747 mmHg 91%
04:00 +20°C° 0 mm 2 mps 747 mmHg 90%
05:00 +20°C° 0 mm 2 mps 747 mmHg 90%
06:00 +23°C° 0 mm 2 mps 747 mmHg 83%
07:00 +25°C° 0 mm 3 mps 747 mmHg 76%
08:00 +27°C° 0 mm 3 mps 748 mmHg 70%
09:00 +28°C° 0 mm 3 mps 748 mmHg 64%
10:00 +30°C° 0 mm 3 mps 748 mmHg 58%
11:00 +32°C° 0 mm 4 mps 748 mmHg 51%
12:00 +33°C° 0 mm 4 mps 748 mmHg 49%
13:00 +33°C° 0 mm 4 mps 747 mmHg 47%
14:00 +34°C° 0 mm 4 mps 747 mmHg 45%
15:00 +34°C° 0 mm 4 mps 747 mmHg 48%
16:00 +34°C° 0 mm 3 mps 747 mmHg 51%
17:00 +34°C° 0 mm 3 mps 747 mmHg 53%
18:00 +31°C° 0 mm 3 mps 747 mmHg 60%
19:00 +29°C° 0 mm 3 mps 747 mmHg 68%
20:00 +27°C° 0 mm 2 mps 747 mmHg 75%
21:00 +26°C° 0 mm 2 mps 747 mmHg 78%
22:00 +25°C° 0 mm 2 mps 748 mmHg 81%
23:00 +24°C° 0 mm 2 mps 748 mmHg 85%

24 June, Thursday

Time Temperature Precipitation Wind Pressure Humidity
00:00 +24°C° 0 mm 2 mps 748 mmHg 87%
01:00 +23°C° 0 mm 2 mps 748 mmHg 90%
02:00 +23°C° 0 mm 2 mps 748 mmHg 93%
03:00 +23°C° 0 mm 2 mps 748 mmHg 92%
04:00 +23°C° 0 mm 2 mps 748 mmHg 92%
05:00 +23°C° 0 mm 2 mps 748 mmHg 91%
06:00 +25°C° 0 mm 2 mps 748 mmHg 84%
07:00 +26°C° 0 mm 3 mps 748 mmHg 77%
08:00 +28°C° 0 mm 3 mps 748 mmHg 70%
09:00 +29°C° 0 mm 3 mps 748 mmHg 64%
10:00 +30°C° 0 mm 3 mps 748 mmHg 59%
11:00 +33°C° 0 mm 3 mps 748 mmHg 54%
12:00 +33°C° 0 mm 3 mps 748 mmHg 51%
13:00 +34°C° 0 mm 3 mps 748 mmHg 49%
14:00 +35°C° 0 mm 3 mps 748 mmHg 46%
15:00 +34°C° 0 mm 3 mps 748 mmHg 49%
16:00 +34°C° 0 mm 3 mps 748 mmHg 51%
17:00 +33°C° 0 mm 3 mps 748 mmHg 53%
18:00 +30°C° 2 mm 3 mps 748 mmHg 63%
19:00 +27°C° 2 mm 3 mps 748 mmHg 73%
20:00 +24°C° 2 mm 3 mps 748 mmHg 83%
21:00 +23°C° 0.5 mm 2 mps 748 mmHg 86%
22:00 +23°C° 0.5 mm 2 mps 748 mmHg 88%
23:00 +22°C° 0.5 mm 1 mps 748 mmHg 91%

25 June, Friday

Time Temperature Precipitation Wind Pressure Humidity
00:00 +22°C° 0.1 mm 1 mps 748 mmHg 91%
01:00 +22°C° 0.1 mm 1 mps 747 mmHg 90%
02:00 +21°C° 0.1 mm 1 mps 747 mmHg 90%
03:00 +22°C° 0.7 mm 1 mps 747 mmHg 91%
04:00 +22°C° 0.7 mm 1 mps 747 mmHg 92%
05:00 +22°C° 0.7 mm 1 mps 747 mmHg 93%
06:00 +23°C° 0 mm 2 mps 747 mmHg 90%
07:00 +25°C° 0 mm 2 mps 747 mmHg 86%
08:00 +26°C° 0 mm 3 mps 747 mmHg 83%
09:00 +28°C° 0 mm 3 mps 747 mmHg 75%
10:00 +29°C° 0 mm 4 mps 747 mmHg 67%
11:00 +32°C° 0 mm 4 mps 747 mmHg 59%
12:00 +32°C° 0 mm 4 mps 747 mmHg 59%
13:00 +30°C° 0 mm 4 mps 747 mmHg 59%
14:00 +30°C° 0 mm 4 mps 747 mmHg 59%
15:00 +29°C° 0 mm 4 mps 746 mmHg 61%
16:00 +29°C° 0 mm 3 mps 746 mmHg 62%
17:00 +29°C° 0 mm 3 mps 746 mmHg 64%
18:00 +28°C° 0 mm 3 mps 745 mmHg 69%
19:00 +27°C° 0 mm 2 mps 745 mmHg 73%
20:00 +26°C° 0 mm 2 mps 745 mmHg 78%
21:00 +25°C° 0.3 mm 2 mps 745 mmHg 82%
22:00 +23°C° 0.3 mm 2 mps 746 mmHg 87%
23:00 +21°C° 0.3 mm 2 mps 746 mmHg 91%
Show more